Regional Weather Roundup
Issued by NWS

Home | Current Version | Previous Version | Graphics & Text | Print | Product List | Glossary On
Versions: 1 2 3 4 5 6 7 8 9 10 11 12 13 14 15 16 17 18 19 20 21 22 23 24 25 26 27 28 29 30 31 32 33 34 35 36 37 38 39 40 41 42 43 44 45 46 47 48 49 50
000
ASUS43 KFSD 230402
RWRSD

WEATHER ROUNDUP FOR SOUTH DAKOTA
NATIONAL WEATHER SERVICE SIOUX FALLS SD
1000 PM CST MON DEC 22 2014

NOTE: "FAIR" INDICATES FEW OR NO CLOUDS BELOW 12,000 FEET WITH NO
SIGNIFICANT WEATHER AND/OR OBSTRUCTIONS TO VISIBILITY.


SDZ001>005-009-010-012>017-230500-
NORTHWEST AND NORTH CENTRAL SOUTH DAKOTA

CITY           SKY/WX    TMP DP  RH WIND       PRES   REMARKS
BUFFALO          N/A     24  19  81 NW30G38   29.71R WCI   7
FAITH            N/A     25  20  81 NW29G36   29.70R WCI   8
MOBRIDGE       LGT SNOW  31  28  89 N21G29    29.61R FOG     WCI  18
$$

SDZ012>016-024>037-041>051-057-063-072>074-230500-
SOUTHWEST AND SOUTH CENTRAL SOUTH DAKOTA

CITY           SKY/WX    TMP DP  RH WIND       PRES   REMARKS
RAPID CTY ARPT LGT SNOW  29  26  89 N36G51    29.71R VSB 3/4 WCI  12
PIERRE         LGT SNOW  31  29  92 NW24G31   29.59R FOG     WCI  17
CUSTER         CLOUDY    25  15  66 NW18G35   29.62R WCI  11
ELLSWORTH AFB  LGT SNOW  29  27  92 N31G41    29.71R VSB 1   WCI  13
PHILIP         LGT SNOW  27  23  85 NW26      29.69R FOG     WCI  12
PINE RIDGE     LGT SNOW  29  25  85 N21G32    29.70R VSB 1   WCI  16
WINNER         MIX PCPN  31  27  85 NW24G32   29.56R WCI  17
$$

SDZ004>011-016>023-039-040-230500-
NORTHEAST SOUTH DAKOTA

CITY           SKY/WX    TMP DP  RH WIND       PRES   REMARKS
ABERDEEN       LGT SNOW  34  32  92 NE12      29.58R FOG     WCI  25
WATERTOWN      CLOUDY    33  32  96 E9G20     29.53R WCI  25
SISSETON         N/A     32  32 100 E8        29.60R WCI  25
$$

SDZ017-020-022-023-036>040-048>070-230500-
SOUTHEAST SOUTH DAKOTA

CITY           SKY/WX    TMP DP  RH WIND       PRES   REMARKS
SIOUX FALLS    LGT RAIN  35  34  96 E10       29.49R WCI  27
HURON          FOG       32  32 100 N5        29.52R VSB 3/4 WCI  27
MITCHELL       FLURRIES  33  33 100 NW10      29.52R WCI  25
YANKTON        CLOUDY    34  32  93 NW9       29.50R WCI  26
$$

ABBREVIATIONS USED IN REMARKS
   TC - TEMPERATURE IN CELSIUS
  WCI - WIND CHILL INDEX
   HX - HEAT INDEX
  VSB - VISIBILITY



USA.gov is the U.S. government's official web portal to all federal, state and local government web resources and services.